Location: G�ppingen
(48.7000°N, 9.6670°E)
Time: 20:07:42
(UTC+01:00)

N. Korean satellite - Visible Passes

Search period start: 18 February 2019 00:00
Search period end: 28 February 2019 00:00
Orbit: 457 x 510 km, 97.2° (Epoch: 17 February)

Date Brightness Start Highest point End Pass type
(mag) Time Alt. Az. Time Alt. Az. Time Alt. Az.
18 Feb 7.5 06:25:06 10° NNE 06:28:31 50° E 06:31:52 10° S visible
18 Feb 9.9 18:38:35 10° SW 18:41:17 19° W 18:43:58 10° NW visible
19 Feb 9.0 06:00:42 10° NE 06:03:40 26° E 06:06:35 10° SSE visible
20 Feb 10.0 05:36:50 10° ENE 05:38:43 14° E 05:40:36 10° ESE visible
21 Feb 6.5 06:44:14 10° NNE 06:47:44 90° W 06:51:10 10° SSW visible
21 Feb 10.4 18:59:17 10° WSW 19:00:40 12° W 19:02:04 10° WNW visible
22 Feb 7.9 06:19:36 10° NNE 06:22:57 43° E 06:26:14 10° S visible
22 Feb 9.7 18:32:52 10° SW 18:35:43 21° W 18:38:33 10° NW visible
23 Feb 9.3 05:55:17 10° NE 05:58:04 22° E 06:00:49 10° SSE visible
24 Feb 10.1 05:31:41 10° ENE 05:33:06 12° E 05:34:31 10° ESE visible
25 Feb 10.3 18:53:16 10° WSW 18:55:04 13° W 18:56:52 10° WNW visible
26 Feb 8.2 06:14:06 10° NNE 06:17:20 37° E 06:20:32 10° SSE visible
26 Feb 9.5 18:27:08 10° SSW 18:30:07 24° W 18:33:05 10° NW visible
27 Feb 9.6 05:49:51 10° NE 05:52:26 20° E 05:55:00 10° SE visible
